QPF
0.00 0.00 0.00 0.00 0.00 0.00 0.00 0.00 0.00 0.00 0.00 0.00 0.00 0.00 0.00 0.00 0.00 0.00 0.00 0.00 0.00 0.00 0.00 0.00 0.01 0.02 0.01 0.01 0.00 0.00 0.00 0.00 0.00 0.00 0.00 0.00 0.00 0.00 0.00 0.00 0.00 0.00 0.00 0.00 0.03 0.09 0.00 0.00 0.00
0.00 0.00 0.00 0.00 0.00 0.00 0.00 0.00 0.00 0.00 0.00 0.00 0.00 0.00 0.00 0.00 0.00 0.00 0.00 0.00 0.00 0.00 0.00 0.00 0.00 0.01 0.02 0.02 0.01 0.00 0.00 0.00 0.00 0.00 0.00 0.00 0.00 0.00 0.00 0.00 0.00 0.00 0.00 0.00 0.01 0.02 0.00 0.00 0.00
0.00 0.00 0.00 0.00 0.00 0.00 0.00 0.00 0.00 0.00 0.00 0.00 0.00 0.00 0.00 0.00 0.00 0.00 0.00 0.00 0.00 0.00 0.00 0.00 0.00 0.00 0.01 0.02 0.02 0.02 0.01 0.00 0.00 0.01 0.00 0.00 0.00 0.00 0.00 0.00 0.00 0.00 0.00 0.00 0.00 0.01 0.00 0.00 0.00
0.00 0.00 0.00 0.00 0.00 0.00 0.00 0.00 0.00 0.00 0.00 0.00 0.00 0.00 0.00 0.00 0.00 0.00 0.00 0.00 0.00 0.00 0.00 0.00 0.00 0.00 0.00 0.00 0.01 0.02 0.03 0.07 0.07 0.02 0.00 0.00 0.00 0.00 0.00 0.00 0.00 0.00 0.00 0.00 0.00 0.01 0.00 0.00 0.00
0.00 0.00 0.00 0.00 0.00 0.00 0.00 0.00 0.00 0.00 0.00 0.00 0.00 0.00 0.00 0.00 0.00 0.00 0.00 0.00 0.00 0.00 0.00 0.00 0.00 0.00 0.00 0.00 0.00 0.00 0.01 0.04 0.08 0.08 0.08 0.02 0.00 0.00 0.00 0.00 0.00 0.00 0.00 0.00 0.00 0.02 0.00 0.00 0.00
0.00 0.00 0.00 0.00 0.00 0.00 0.00 0.00 0.00 0.00 0.00 0.00 0.00 0.00 0.00 0.00 0.00 0.00 0.00 0.00 0.00 0.00 0.00 0.00 0.00 0.00 0.00 0.00 0.00 0.00 0.00 0.01 0.06 0.04 0.10 0.15 0.02 0.00 0.00 0.00 0.00 0.00 0.00 0.00 0.00 0.02 0.00 0.00 0.00
0.00 0.00 0.00 0.00 0.00 0.00 0.00 0.00 0.00 0.00 0.00 0.00 0.00 0.00 0.00 0.00 0.00 0.00 0.00 0.00 0.00 0.00 0.00 0.00 0.00 0.00 0.00 0.00 0.00 0.00 0.00 0.00 0.00 0.02 0.03 0.05 0.03 0.00 0.00 0.00 0.00 0.00 0.00 0.01 0.02 0.02 0.00 0.00 0.00
0.00 0.00 0.00 0.00 0.00 0.00 0.00 0.00 0.00 0.00 0.00 0.00 0.00 0.00 0.00 0.00 0.00 0.00 0.00 0.00 0.00 0.00 0.00 0.00 0.00 0.00 0.00 0.00 0.00 0.00 0.00 0.00 0.00 0.00 0.00 0.00 0.00 0.00 0.01 0.00 0.00 0.00 0.00 0.01 0.02 0.01 0.00 0.00 0.00
0.00 0.00 0.00 0.00 0.00 0.00 0.00 0.00 0.00 0.00 0.00 0.00 0.00 0.00 0.00 0.00 0.00 0.00 0.00 0.00 0.00 0.00 0.00 0.00 0.00 0.00 0.00 0.00 0.00 0.00 0.00 0.00 0.00 0.00 0.00 0.00 0.00 0.02 0.02 0.00 0.00 0.00 0.00 0.00 0.02 0.00 0.00 0.00 0.00
0.00 0.00 0.00 0.00 0.00 0.00 0.00 0.00 0.00 0.00 0.00 0.00 0.00 0.00 0.00 0.00 0.00 0.00 0.00 0.00 0.00 0.00 0.00 0.00 0.00 0.00 0.00 0.00 0.00 0.00 0.00 0.00 0.00 0.00 0.00 0.00 0.02 0.01 0.01 0.02 0.01 0.03 0.03 0.02 0.01 0.01 0.00 0.00 0.00
0.00 0.00 0.00 0.00 0.00 0.00 0.00 0.00 0.00 0.00 0.00 0.00 0.00 0.00 0.00 0.00 0.00 0.00 0.00 0.00 0.00 0.00 0.00 0.00 0.00 0.00 0.00 0.00 0.00 0.00 0.00 0.00 0.00 0.00 0.00 0.00 0.00 0.01 0.02 0.05 0.02 0.04 0.04 0.03 0.02 0.01 0.00 0.00 0.00
0.00 0.00 0.00 0.00 0.00 0.00 0.00 0.00 0.00 0.00 0.00 0.00 0.00 0.00 0.00 0.00 0.00 0.00 0.00 0.00 0.00 0.00 0.00 0.00 0.00 0.00 0.00 0.00 0.00 0.00 0.00 0.00 0.00 0.00 0.00 0.00 0.00 0.00 0.02 0.04 0.03 0.01 0.03 0.02 0.01 0.02 0.01 0.00 0.00
0.00 0.00 0.00 0.00 0.00 0.00 0.00 0.00 0.00 0.00 0.00 0.00 0.00 0.00 0.00 0.00 0.00 0.00 0.00 0.00 0.00 0.00 0.00 0.00 0.00 0.00 0.00 0.00 0.00 0.00 0.00 0.00 0.00 0.00 0.00 0.00 0.00 0.00 0.00 0.01 0.03 0.02 0.02 0.02 0.01 0.00 0.00 0.00 0.00
0.00 0.00 0.00 0.00 0.00 0.00 0.00 0.00 0.00 0.00 0.00 0.00 0.00 0.00 0.00 0.00 0.00 0.00 0.00 0.00 0.00 0.00 0.00 0.00 0.00 0.00 0.00 0.00 0.00 0.00 0.00 0.00 0.00 0.00 0.00 0.00 0.00 0.00 0.00 0.00 0.01 0.01 0.02 0.02 0.02 0.01 0.00 0.00 0.00
0.00 0.00 0.00 0.00 0.00 0.00 0.00 0.00 0.00 0.00 0.00 0.00 0.00 0.00 0.00 0.00 0.00 0.00 0.00 0.00 0.00 0.00 0.00 0.00 0.00 0.00 0.00 0.00 0.00 0.00 0.00 0.00 0.00 0.00 0.00 0.00 0.00 0.00 0.00 0.00 0.00 0.01 0.02 0.03 0.04 0.03 0.01 0.01 0.00
0.00 0.00 0.00 0.00 0.00 0.00 0.00 0.00 0.00 0.00 0.00 0.00 0.00 0.00 0.00 0.00 0.00 0.00 0.00 0.00 0.00 0.00 0.00 0.00 0.00 0.00 0.00 0.00 0.00 0.00 0.00 0.00 0.00 0.00 0.00 0.00 0.00 0.00 0.00 0.00 0.00 0.00 0.01 0.01 0.02 0.01 0.01 0.01 0.00
0.00 0.00 0.00 0.00 0.00 0.00 0.00 0.00 0.00 0.00 0.00 0.00 0.00 0.00 0.00 0.00 0.00 0.00 0.00 0.00 0.00 0.00 0.00 0.00 0.00 0.00 0.00 0.00 0.00 0.00 0.00 0.00 0.00 0.00 0.00 0.00 0.00 0.00 0.00 0.00 0.00 0.00 0.00 0.01 0.01 0.01 0.01 0.01 0.01
0.00 0.00 0.00 0.00 0.00 0.00 0.00 0.00 0.00 0.00 0.00 0.00 0.00 0.00 0.00 0.00 0.00 0.00 0.00 0.00 0.00 0.00 0.00 0.00 0.00 0.00 0.00 0.00 0.00 0.00 0.00 0.00 0.00 0.00 0.00 0.00 0.00 0.00 0.00 0.00 0.00 0.00 0.00 0.00 0.01 0.02 0.01 0.00 0.01
0.00 0.00 0.00 0.00 0.00 0.00 0.00 0.00 0.00 0.00 0.00 0.00 0.00 0.00 0.00 0.00 0.00 0.00 0.00 0.00 0.00 0.00 0.00 0.00 0.00 0.00 0.00 0.00 0.00 0.00 0.00 0.00 0.00 0.00 0.00 0.00 0.00 0.00 0.00 0.00 0.00 0.00 0.00 0.00 0.00 0.01 0.02 0.01 0.01
0.00 0.00 0.00 0.00 0.00 0.00 0.00 0.00 0.00 0.00 0.00 0.00 0.00 0.00 0.00 0.00 0.00 0.00 0.00 0.00 0.00 0.00 0.00 0.00 0.00 0.00 0.00 0.00 0.00 0.00 0.00 0.00 0.00 0.00 0.00 0.00 0.00 0.00 0.00 0.00 0.00 0.00 0.00 0.00 0.00 0.00 0.01 0.02 0.02
0.00 0.00 0.00 0.00 0.00 0.00 0.00 0.00 0.00 0.00 0.00 0.00 0.00 0.00 0.00 0.00 0.00 0.00 0.00 0.00 0.00 0.00 0.00 0.00 0.00 0.00 0.00 0.00 0.00 0.00 0.00 0.00 0.00 0.00 0.00 0.00 0.00 0.00 0.00 0.00 0.00 0.00 0.00 0.00 0.00 0.00 0.00 0.01 0.02
0.00 0.00 0.00 0.00 0.00 0.00 0.00 0.00 0.00 0.00 0.00 0.00 0.00 0.00 0.00 0.00 0.00 0.00 0.00 0.00 0.00 0.00 0.00 0.00 0.00 0.00 0.00 0.00 0.00 0.00 0.00 0.00 0.00 0.00 0.00 0.00 0.00 0.00 0.00 0.00 0.00 0.00 0.00 0.00 0.00 0.00 0.01 0.01 0.01
0.00 0.00 0.00 0.00 0.00 0.00 0.00 0.00 0.00 0.00 0.00 0.00 0.00 0.00 0.00 0.00 0.00 0.00 0.00 0.00 0.00 0.00 0.00 0.00 0.00 0.00 0.00 0.00 0.00 0.00 0.00 0.00 0.00 0.00 0.00 0.00 0.00 0.00 0.00 0.00 0.00 0.00 0.00 0.00 0.00 0.01 0.01 0.01 0.01
0.00 0.00 0.00 0.00 0.00 0.00 0.00 0.00 0.00 0.00 0.00 0.00 0.00 0.00 0.00 0.00 0.00 0.00 0.00 0.00 0.00 0.00 0.00 0.00 0.00 0.00 0.00 0.00 0.00 0.00 0.00 0.00 0.00 0.00 0.00 0.00 0.00 0.00 0.00 0.00 0.00 0.00 0.00 0.00 0.00 0.00 0.01 0.00 0.00
0.00 0.00 0.00 0.00 0.00 0.00 0.00 0.00 0.00 0.00 0.00 0.00 0.00 0.00 0.00 0.00 0.00 0.00 0.00 0.00 0.00 0.00 0.00 0.00 0.00 0.00 0.00 0.00 0.00 0.00 0.00 0.00 0.00 0.00 0.00 0.00 0.00 0.00 0.00 0.00 0.00 0.00 0.00 0.00 0.00 0.01 0.01 0.02 0.02
0.00 0.00 0.00 0.00 0.00 0.00 0.00 0.00 0.00 0.00 0.00 0.00 0.00 0.00 0.00 0.00 0.00 0.00 0.00 0.00 0.00 0.00 0.00 0.00 0.00 0.00 0.00 0.00 0.00 0.00 0.00 0.00 0.00 0.00 0.00 0.00 0.00 0.00 0.00 0.00 0.00 0.00 0.00 0.00 0.00 0.01 0.01 0.02 0.03
0.00 0.00 0.00 0.00 0.00 0.00 0.00 0.00 0.00 0.00 0.00 0.00 0.00 0.00 0.00 0.00 0.00 0.00 0.00 0.00 0.00 0.00 0.00 0.00 0.00 0.00 0.00 0.00 0.00 0.00 0.00 0.00 0.00 0.00 0.00 0.00 0.00 0.00 0.00 0.00 0.00 0.00 0.00 0.00 0.01 0.01 0.02 0.03 0.04
0.00 0.00 0.00 0.00 0.00 0.00 0.00 0.00 0.00 0.00 0.00 0.00 0.00 0.00 0.00 0.00 0.00 0.00 0.00 0.00 0.00 0.00 0.00 0.00 0.00 0.00 0.00 0.00 0.00 0.00 0.00 0.00 0.00 0.00 0.00 0.00 0.00 0.00 0.00 0.00 0.00 0.00 0.00 0.00 0.00 0.01 0.01 0.03 0.04
0.00 0.00 0.00 0.00 0.00 0.00 0.00 0.00 0.00 0.00 0.00 0.00 0.00 0.00 0.00 0.00 0.00 0.00 0.00 0.00 0.00 0.00 0.00 0.00 0.00 0.00 0.00 0.00 0.00 0.00 0.00 0.00 0.00 0.00 0.00 0.00 0.00 0.00 0.00 0.00 0.00 0.00 0.00 0.00 0.00 0.00 0.01 0.02 0.02
0.00 0.00 0.00 0.00 0.00 0.00 0.00 0.00 0.00 0.00 0.00 0.00 0.00 0.00 0.00 0.00 0.00 0.00 0.00 0.00 0.00 0.00 0.00 0.00 0.00 0.00 0.00 0.00 0.00 0.00 0.00 0.00 0.00 0.00 0.00 0.00 0.00 0.00 0.00 0.00 0.00 0.00 0.00 0.00 0.00 0.00 0.01 0.02 0.02
MSLP
1015.18 1014.91 1014.62 1013.80 1013.24 1012.13 1010.71 1010.60 1011.06 1011.06 1011.31 1011.30 1011.46 1010.87 1010.49 1010.70 1010.30 1011.56 1013.23 1013.39 1013.54 1013.62 1013.83 1013.55 1013.88 1014.18 1014.37 1014.55 1014.75 1014.95 1015.03 1015.04 1015.12 1015.18 1015.19 1015.26 1015.42 1015.59 1015.71 1015.80 1015.95 1016.01 1016.04 1016.05 1015.98 1016.07 1016.25 1016.39 1016.56
1015.20 1014.88 1014.39 1013.63 1012.60 1011.18 1010.34 1011.07 1011.21 1011.38 1011.95 1012.29 1012.16 1011.83 1011.48 1010.89 1011.97 1012.55 1012.99 1013.74 1013.72 1013.85 1013.76 1014.00 1014.09 1014.08 1014.32 1014.51 1014.71 1014.94 1015.10 1015.19 1015.26 1015.28 1015.34 1015.32 1015.44 1015.50 1015.67 1015.80 1015.92 1016.01 1016.02 1016.08 1016.17 1016.21 1016.39 1016.58 1016.81
1015.28 1015.03 1013.95 1013.34 1012.36 1011.15 1010.75 1011.42 1011.62 1012.25 1012.65 1012.55 1012.32 1012.50 1012.04 1011.75 1012.51 1012.63 1013.23 1013.77 1013.64 1013.71 1013.86 1014.26 1014.31 1014.14 1014.21 1014.49 1014.70 1014.89 1015.04 1015.14 1015.21 1015.25 1015.38 1015.43 1015.46 1015.55 1015.67 1015.79 1015.88 1015.96 1016.03 1016.12 1016.23 1016.32 1016.51 1016.76 1016.96
1015.22 1014.85 1014.99 1013.78 1012.26 1012.10 1011.94 1012.05 1012.56 1012.65 1012.99 1013.03 1012.72 1012.19 1012.73 1012.90 1012.83 1012.92 1013.61 1013.82 1013.66 1013.71 1013.84 1014.43 1014.55 1014.48 1014.46 1014.49 1014.59 1014.74 1014.87 1015.03 1015.08 1015.13 1015.26 1015.44 1015.49 1015.60 1015.72 1015.80 1015.89 1015.95 1016.03 1016.11 1016.24 1016.43 1016.57 1016.76 1016.99
1015.39 1014.89 1013.95 1013.30 1012.69 1012.70 1012.77 1013.10 1013.24 1012.83 1012.89 1012.89 1013.20 1012.22 1012.55 1013.20 1013.75 1013.59 1013.82 1014.01 1013.78 1013.97 1014.20 1014.40 1014.80 1014.68 1014.65 1014.66 1014.69 1014.67 1014.71 1014.78 1014.90 1015.00 1015.10 1015.27 1015.43 1015.52 1015.65 1015.76 1015.90 1015.96 1016.04 1016.14 1016.21 1016.35 1016.61 1016.82 1016.98
1015.22 1015.18 1013.87 1012.89 1012.78 1013.34 1013.50 1013.81 1013.75 1013.36 1012.97 1013.09 1013.33 1013.08 1012.81 1013.50 1013.84 1013.99 1014.14 1014.07 1014.15 1014.13 1014.46 1014.58 1015.08 1015.05 1015.02 1014.92 1014.85 1014.75 1014.73 1014.67 1014.59 1014.72 1014.87 1015.05 1015.18 1015.37 1015.49 1015.59 1015.71 1015.81 1015.93 1016.03 1016.11 1016.28 1016.51 1016.75 1016.97
1015.38 1014.98 1014.47 1014.19 1013.85 1013.89 1014.06 1014.57 1014.13 1013.71 1013.43 1013.14 1013.54 1013.03 1013.11 1013.66 1014.07 1014.40 1014.43 1014.46 1014.41 1014.36 1014.43 1014.59 1014.70 1014.99 1015.16 1015.23 1015.13 1015.06 1014.89 1014.77 1014.65 1014.50 1014.62 1014.79 1014.98 1015.07 1015.18 1015.34 1015.50 1015.63 1015.73 1015.79 1015.91 1016.13 1016.41 1016.68 1016.89
1016.24 1015.60 1015.04 1014.69 1014.09 1014.24 1014.99 1015.04 1014.92 1014.64 1013.76 1014.32 1014.11 1012.97 1012.80 1013.27 1014.15 1014.58 1014.71 1014.70 1014.60 1014.53 1014.41 1014.43 1014.67 1014.84 1014.79 1014.84 1015.25 1015.19 1015.08 1014.93 1014.76 1014.63 1014.47 1014.51 1014.72 1014.88 1014.96 1015.10 1015.24 1015.38 1015.55 1015.59 1015.73 1016.00 1016.30 1016.55 1016.76
1016.99 1016.04 1015.18 1015.05 1015.34 1015.07 1015.76 1015.67 1015.30 1015.39 1014.94 1014.50 1014.15 1013.88 1014.02 1014.30 1014.35 1014.51 1014.60 1014.57 1014.56 1014.66 1014.54 1014.49 1014.38 1014.69 1014.91 1014.84 1015.00 1014.99 1014.95 1014.91 1014.71 1014.45 1014.42 1014.35 1014.28 1014.21 1014.31 1014.49 1014.71 1015.09 1015.33 1015.55 1015.70 1015.95 1016.22 1016.53 1016.75
1016.96 1016.54 1016.10 1016.63 1016.59 1016.34 1016.35 1016.35 1015.96 1015.52 1014.59 1014.29 1013.88 1013.87 1014.42 1014.56 1014.54 1014.43 1014.28 1014.19 1014.22 1014.23 1014.41 1014.51 1014.50 1014.57 1014.80 1014.86 1014.82 1014.71 1014.64 1014.51 1014.35 1014.13 1013.87 1013.81 1013.90 1013.88 1013.90 1014.03 1014.51 1014.77 1015.04 1015.35 1015.58 1015.77 1016.10 1016.43 1016.08
1017.66 1016.98 1017.25 1016.98 1017.10 1017.26 1016.88 1016.42 1016.04 1015.44 1014.44 1013.87 1013.67 1013.61 1013.89 1014.22 1014.41 1014.43 1014.37 1014.34 1014.23 1014.25 1014.27 1014.43 1014.55 1014.69 1014.69 1014.67 1014.72 1014.44 1014.36 1014.29 1014.17 1014.12 1013.92 1013.60 1013.45 1013.59 1013.68 1013.62 1013.93 1014.31 1014.71 1014.71 1015.16 1015.44 1015.58 1015.57 1015.47
1017.91 1017.70 1017.72 1017.42 1017.49 1017.37 1016.69 1016.16 1015.49 1014.79 1013.76 1013.75 1013.52 1013.70 1013.87 1013.71 1013.69 1013.88 1013.94 1013.87 1014.03 1014.18 1014.23 1014.25 1014.38 1014.62 1014.62 1014.61 1014.51 1014.41 1014.23 1014.11 1014.01 1013.84 1013.83 1013.61 1013.25 1013.09 1013.39 1013.22 1013.34 1013.42 1013.49 1013.85 1013.85 1014.34 1014.61 1014.74 1014.85
1018.28 1018.03 1018.06 1017.87 1017.62 1017.33 1016.84 1016.09 1015.31 1013.96 1013.72 1013.58 1013.29 1013.28 1013.54 1013.60 1013.40 1013.25 1013.21 1013.43 1013.57 1013.61 1013.80 1014.04 1014.27 1014.48 1014.57 1014.65 1014.46 1014.29 1014.07 1013.92 1013.73 1013.86 1013.69 1013.50 1013.22 1012.94 1012.53 1012.74 1012.87 1012.77 1013.12 1013.31 1013.26 1013.25 1013.41 1014.00 1014.17
1018.54 1018.35 1017.92 1017.54 1017.15 1016.93 1016.38 1015.15 1014.71 1012.98 1013.37 1012.97 1012.86 1012.58 1012.29 1012.51 1012.76 1012.93 1012.99 1012.95 1013.01 1013.19 1013.37 1013.79 1013.98 1014.22 1014.38 1014.38 1014.27 1014.14 1013.95 1013.79 1013.69 1013.56 1013.41 1013.38 1013.08 1012.78 1012.55 1012.33 1012.54 1012.64 1012.53 1012.65 1012.94 1013.20 1013.43 1013.23 1013.32
1018.83 1018.46 1017.46 1017.19 1017.08 1016.52 1016.08 1014.05 1013.17 1013.02 1012.93 1012.52 1012.55 1012.22 1012.01 1012.08 1012.04 1012.51 1012.58 1012.65 1012.91 1012.91 1013.04 1013.59 1013.80 1013.88 1014.01 1014.03 1014.02 1013.91 1013.72 1013.67 1013.38 1013.12 1012.97 1013.03 1012.90 1012.63 1012.43 1012.11 1011.78 1012.04 1012.30 1012.06 1012.19 1012.49 1013.12 1013.54 1013.45
1018.48 1018.29 1017.20 1016.94 1016.89 1016.27 1016.48 1012.18 1012.68 1012.53 1012.66 1012.04 1011.75 1011.59 1011.79 1011.67 1011.81 1011.55 1011.97 1012.26 1012.62 1012.82 1013.12 1013.29 1013.64 1013.77 1013.87 1013.77 1013.71 1013.48 1013.36 1013.25 1012.93 1012.73 1012.53 1012.50 1012.46 1012.32 1012.13 1011.79 1011.46 1011.17 1011.28 1011.91 1011.92 1012.19 1012.36 1012.74 1013.07
1018.35 1017.69 1017.46 1016.83 1016.92 1016.79 1016.41 1013.06 1011.77 1012.35 1011.97 1011.26 1011.00 1010.91 1010.92 1011.19 1011.22 1011.34 1011.25 1011.71 1012.28 1012.63 1012.91 1013.34 1013.64 1013.61 1013.65 1013.66 1013.47 1013.31 1013.06 1012.84 1012.53 1012.32 1012.09 1011.91 1011.96 1011.88 1011.75 1011.45 1011.09 1010.81 1010.76 1011.23 1011.59 1011.62 1011.94 1012.09 1012.28
1018.37 1017.98 1017.37 1017.19 1016.43 1016.17 1015.29 1013.33 1011.75 1010.99 1010.55 1010.09 1009.86 1010.09 1010.21 1010.49 1010.75 1010.88 1011.27 1011.40 1012.02 1012.48 1012.95 1013.14 1013.34 1013.42 1013.43 1013.41 1013.23 1012.99 1012.68 1012.40 1012.11 1011.91 1011.67 1011.54 1011.42 1011.33 1011.24 1011.00 1010.81 1010.59 1010.41 1010.28 1010.72 1010.99 1011.24 1011.16 1011.70
1019.29 1018.66 1017.59 1016.84 1016.68 1016.31 1014.22 1013.03 1011.10 1010.21 1009.80 1009.34 1009.01 1009.51 1009.81 1009.94 1010.60 1010.85 1011.03 1011.47 1011.72 1012.20 1012.64 1012.87 1013.05 1013.11 1013.24 1013.04 1012.82 1012.46 1012.12 1011.96 1011.78 1011.58 1011.48 1011.40 1011.16 1010.86 1010.65 1010.48 1010.25 1010.20 1009.96 1009.84 1009.81 1010.02 1010.64 1010.71 1011.08
1019.16 1018.41 1017.28 1016.74 1016.63 1016.73 1014.12 1012.08 1010.50 1010.13 1009.94 1009.52 1009.16 1009.40 1009.79 1010.29 1010.61 1010.64 1010.69 1011.20 1011.66 1011.85 1012.27 1012.60 1012.72 1012.89 1012.98 1012.98 1012.80 1012.70 1012.31 1011.93 1011.72 1011.46 1011.17 1011.05 1010.85 1010.61 1010.30 1010.06 1009.78 1009.55 1009.44 1009.45 1009.42 1009.40 1009.44 1009.98 1010.47
1018.63 1018.07 1017.58 1017.58 1016.75 1015.49 1014.56 1010.67 1009.79 1009.45 1009.58 1009.39 1009.26 1009.68 1010.05 1010.39 1010.70 1010.67 1010.72 1011.07 1011.52 1011.91 1012.09 1012.31 1012.51 1012.73 1012.77 1012.75 1012.67 1012.45 1012.23 1012.11 1011.77 1011.05 1010.59 1010.32 1010.17 1010.09 1010.01 1009.75 1009.46 1009.16 1009.00 1008.74 1008.84 1008.84 1008.80 1008.75 1009.19
1018.28 1018.20 1018.10 1017.50 1016.99 1015.41 1015.28 1012.03 1009.84 1009.23 1008.87 1009.20 1009.38 1009.49 1010.11 1010.47 1010.79 1011.11 1011.20 1011.20 1011.48 1011.80 1012.06 1012.16 1012.24 1012.40 1012.44 1012.46 1012.32 1011.99 1011.67 1011.33 1011.01 1010.75 1010.42 1010.13 1009.81 1009.59 1009.33 1009.30 1009.00 1008.72 1008.51 1008.25 1008.16 1008.28 1008.14 1008.22 1007.98
1018.39 1017.95 1017.88 1017.51 1016.89 1016.25 1014.89 1013.54 1009.54 1009.21 1008.81 1009.13 1009.70 1009.83 1009.97 1010.48 1010.72 1010.91 1011.29 1011.54 1011.53 1011.65 1011.72 1011.85 1012.01 1012.03 1012.03 1012.03 1011.98 1011.66 1011.18 1010.90 1010.58 1010.44 1010.11 1009.75 1009.40 1009.18 1008.95 1008.72 1008.46 1008.22 1008.04 1007.83 1007.67 1007.67 1007.56 1007.38 1007.35
1018.86 1017.74 1017.37 1017.36 1016.62 1015.60 1015.03 1014.03 1009.91 1009.25 1009.66 1009.33 1009.45 1009.97 1010.21 1010.16 1010.31 1010.75 1011.08 1011.28 1011.39 1011.47 1011.43 1011.44 1011.47 1011.44 1011.44 1011.45 1011.26 1010.99 1010.49 1010.32 1010.14 1009.93 1009.52 1009.16 1008.92 1008.64 1008.25 1007.99 1007.90 1007.67 1007.48 1007.27 1007.16 1007.18 1006.99 1006.72 1006.58
1018.81 1017.26 1016.60 1016.46 1015.84 1014.91 1014.65 1013.47 1010.41 1009.52 1009.75 1010.09 1010.04 1010.09 1010.27 1010.25 1010.21 1010.31 1010.41 1010.52 1010.68 1010.87 1011.03 1011.11 1011.00 1010.81 1010.74 1010.81 1010.70 1010.35 1010.04 1009.96 1009.75 1009.39 1009.07 1008.75 1008.29 1007.99 1007.67 1007.36 1007.27 1006.93 1006.77 1006.66 1006.60 1006.30 1006.18 1006.19 1005.89
1019.71 1019.23 1018.47 1018.16 1016.99 1015.39 1013.91 1012.25 1009.69 1009.75 1009.76 1009.91 1010.19 1010.29 1010.23 1010.20 1010.32 1010.23 1010.12 1010.13 1010.24 1010.39 1010.55 1010.59 1010.56 1010.50 1010.38 1010.12 1010.00 1009.98 1009.92 1009.86 1009.34 1008.80 1008.67 1008.45 1008.11 1007.52 1007.00 1006.78 1006.52 1006.20 1006.08 1005.91 1005.79 1005.74 1005.45 1005.29 1005.15
1020.01 1019.93 1020.24 1019.33 1018.88 1017.03 1013.39 1011.53 1010.14 1009.75 1009.61 1009.60 1009.75 1009.99 1010.03 1010.07 1010.04 1010.02 1009.98 1010.06 1010.05 1009.97 1010.04 1010.15 1010.20 1010.22 1010.17 1010.05 1009.94 1009.74 1009.49 1009.25 1009.15 1008.90 1008.59 1008.08 1007.66 1007.17 1006.67 1006.29 1005.90 1005.69 1005.45 1005.04 1004.90 1004.82 1004.79 1004.53 1004.42
1020.79 1020.81 1020.48 1020.03 1018.69 1016.27 1013.14 1011.71 1009.92 1009.58 1009.68 1009.84 1009.77 1009.87 1009.80 1009.89 1009.83 1009.75 1009.72 1009.70 1009.63 1009.60 1009.65 1009.67 1009.79 1009.78 1009.70 1009.69 1009.58 1009.43 1009.36 1009.19 1008.87 1008.56 1008.16 1007.62 1007.09 1006.75 1006.22 1005.59 1005.06 1004.90 1004.67 1004.26 1004.12 1004.04 1004.09 1003.85 1003.63
1021.07 1020.69 1020.78 1020.80 1019.84 1018.15 1015.26 1011.32 1010.03 1010.01 1010.22 1010.35 1010.13 1009.94 1009.76 1009.55 1009.37 1009.27 1009.07 1008.96 1008.97 1009.09 1009.10 1009.06 1009.09 1009.16 1009.31 1009.43 1009.31 1009.20 1009.05 1008.79 1008.43 1008.23 1007.78 1007.34 1006.90 1006.31 1005.74 1005.22 1004.47 1004.07 1003.91 1003.65 1003.51 1003.51 1003.36 1003.07 1002.71
1020.97 1020.63 1020.41 1020.17 1019.85 1018.98 1017.71 1012.78 1010.80 1010.61 1010.66 1010.78 1010.37 1010.16 1009.82 1009.53 1009.19 1008.88 1008.73 1008.60 1008.41 1008.33 1008.35 1008.42 1008.53 1008.65 1008.67 1008.74 1008.77 1008.70 1008.60 1008.32 1007.82 1007.49 1007.46 1007.05 1006.50 1006.09 1005.47 1004.91 1004.40 1003.54 1003.25 1003.06 1002.68 1002.48 1002.26 1002.08 1001.95
Thickness
5731 5735 5737 5739 5723 5724 5730 5734 5735 5732 5733 5745 5744 5748 5751 5750 5754 5741 5748 5750 5749 5750 5749 5751 5749 5747 5745 5745 5743 5741 5740 5740 5740 5739 5739 5739 5738 5737 5736 5736 5734 5733 5732 5733 5733 5732 5731 5730 5730
5727 5730 5731 5724 5715 5716 5732 5730 5724 5732 5732 5732 5733 5736 5736 5743 5740 5739 5741 5742 5743 5742 5744 5744 5744 5744 5742 5741 5740 5739 5737 5737 5736 5736 5736 5736 5736 5735 5734 5733 5733 5732 5731 5730 5730 5730 5729 5728 5726
5723 5724 5720 5714 5712 5714 5721 5721 5723 5722 5723 5723 5725 5728 5731 5734 5732 5736 5738 5735 5738 5738 5738 5737 5738 5739 5739 5737 5737 5736 5735 5734 5734 5734 5733 5733 5734 5733 5732 5732 5731 5731 5730 5729 5728 5728 5726 5725 5723
5718 5717 5707 5703 5708 5712 5712 5717 5713 5714 5715 5717 5720 5720 5724 5729 5728 5732 5729 5728 5731 5731 5731 5729 5730 5731 5732 5732 5732 5733 5732 5732 5732 5732 5731 5731 5730 5730 5729 5729 5729 5729 5729 5727 5726 5724 5724 5723 5721
5712 5707 5702 5700 5703 5706 5709 5707 5706 5708 5711 5712 5709 5718 5717 5719 5719 5722 5721 5720 5722 5722 5722 5721 5720 5723 5724 5725 5726 5728 5729 5729 5730 5730 5729 5729 5728 5727 5727 5727 5726 5726 5726 5726 5725 5723 5721 5720 5718
5699 5698 5695 5701 5704 5698 5700 5699 5697 5699 5707 5705 5699 5702 5710 5713 5709 5710 5711 5712 5713 5715 5713 5713 5712 5713 5715 5717 5719 5721 5724 5726 5727 5727 5727 5727 5726 5726 5725 5725 5724 5725 5724 5723 5723 5721 5719 5718 5716
5691 5689 5682 5680 5684 5685 5687 5686 5685 5689 5691 5693 5694 5690 5700 5697 5700 5700 5700 5700 5703 5704 5706 5705 5706 5705 5706 5708 5711 5712 5716 5719 5721 5723 5723 5724 5724 5724 5724 5724 5723 5722 5722 5722 5721 5720 5717 5715 5714
5681 5680 5672 5674 5683 5676 5674 5671 5673 5671 5678 5678 5679 5681 5688 5691 5689 5688 5687 5688 5691 5694 5697 5698 5697 5697 5700 5701 5702 5705 5707 5711 5714 5717 5719 5720 5721 5720 5721 5721 5721 5720 5720 5720 5719 5717 5715 5713 5711
5671 5670 5670 5669 5661 5667 5661 5655 5664 5660 5656 5662 5666 5668 5672 5673 5675 5674 5673 5676 5679 5682 5687 5689 5691 5690 5691 5693 5695 5698 5700 5703 5706 5710 5713 5716 5718 5719 5720 5719 5720 5718 5717 5716 5715 5713 5711 5709 5708
5667 5663 5662 5653 5650 5648 5646 5640 5642 5642 5649 5647 5652 5657 5654 5655 5657 5659 5662 5664 5668 5673 5676 5680 5681 5683 5683 5685 5688 5692 5695 5697 5700 5704 5708 5711 5714 5716 5717 5717 5715 5715 5714 5712 5711 5710 5708 5706 5708
5653 5654 5644 5643 5639 5633 5629 5629 5632 5627 5630 5636 5635 5639 5642 5641 5642 5645 5649 5652 5656 5660 5666 5671 5672 5673 5676 5679 5681 5686 5689 5692 5695 5697 5700 5705 5709 5711 5712 5713 5712 5711 5710 5711 5709 5707 5706 5706 5707
5646 5642 5636 5635 5630 5625 5622 5624 5619 5619 5626 5628 5629 5626 5625 5627 5631 5633 5638 5643 5647 5650 5654 5659 5662 5665 5668 5671 5675 5679 5683 5687 5689 5693 5695 5698 5703 5707 5707 5710 5710 5711 5712 5710 5712 5709 5708 5707 5707
5639 5636 5630 5629 5624 5621 5619 5614 5610 5615 5610 5605 5603 5602 5603 5606 5614 5622 5628 5633 5638 5643 5646 5649 5651 5653 5657 5661 5667 5672 5677 5680 5685 5686 5690 5693 5697 5701 5706 5707 5706 5709 5706 5707 5709 5710 5710 5707 5706
5636 5630 5628 5627 5624 5619 5613 5616 5607 5611 5601 5597 5591 5589 5592 5592 5598 5603 5611 5619 5625 5631 5637 5640 5643 5645 5647 5653 5658 5664 5669 5673 5677 5680 5684 5687 5691 5696 5699 5704 5704 5704 5705 5704 5703 5703 5703 5707 5706
5630 5623 5630 5622 5617 5614 5608 5616 5603 5597 5587 5582 5575 5573 5571 5570 5580 5582 5595 5604 5612 5620 5626 5628 5634 5638 5641 5645 5650 5656 5661 5665 5670 5675 5679 5681 5684 5688 5692 5697 5702 5701 5701 5703 5702 5700 5697 5696 5698
5629 5625 5626 5622 5614 5613 5593 5616 5597 5588 5571 5569 5564 5557 5549 5551 5557 5574 5583 5591 5600 5608 5613 5621 5625 5630 5634 5639 5643 5649 5655 5658 5664 5668 5673 5676 5679 5682 5686 5691 5695 5699 5699 5696 5697 5696 5695 5695 5693
5629 5628 5618 5617 5608 5595 5578 5589 5593 5577 5568 5561 5553 5542 5535 5534 5542 5556 5576 5583 5588 5596 5603 5609 5615 5621 5628 5632 5637 5642 5648 5653 5659 5663 5667 5671 5673 5676 5679 5684 5689 5692 5696 5694 5692 5694 5692 5691 5691
5621 5617 5616 5602 5608 5594 5581 5578 5585 5584 5574 5560 5544 5529 5521 5521 5530 5545 5559 5574 5579 5586 5592 5599 5606 5614 5620 5625 5631 5637 5643 5648 5653 5658 5662 5665 5668 5671 5673 5677 5680 5684 5688 5692 5691 5689 5689 5692 5687
5610 5607 5608 5612 5601 5585 5588 5579 5591 5590 5577 5561 5543 5519 5511 5515 5525 5537 5554 5566 5575 5579 5585 5593 5598 5605 5612 5619 5625 5632 5638 5644 5648 5652 5654 5657 5660 5664 5668 5671 5674 5676 5680 5683 5686 5686 5681 5683 5682
5610 5610 5616 5611 5600 5581 5587 5587 5598 5587 5572 5558 5542 5524 5514 5516 5527 5543 5559 5565 5571 5578 5582 5587 5593 5598 5604 5610 5616 5620 5627 5633 5637 5641 5646 5648 5652 5656 5660 5663 5667 5670 5671 5673 5675 5677 5678 5676 5673
5619 5613 5610 5596 5595 5598 5586 5619 5606 5597 5580 5567 5553 5538 5530 5531 5535 5544 5555 5563 5569 5573 5580 5584 5589 5594 5599 5604 5608 5613 5617 5620 5624 5632 5639 5642 5643 5645 5648 5653 5657 5660 5662 5665 5665 5666 5668 5669 5668
5617 5609 5599 5594 5589 5599 5580 5598 5605 5599 5591 5577 5565 5555 5544 5540 5541 5542 5551 5561 5567 5573 5576 5580 5585 5590 5594 5598 5601 5607 5612 5616 5620 5623 5627 5630 5633 5636 5639 5641 5645 5649 5652 5654 5655 5656 5658 5657 5661
5615 5611 5600 5592 5588 5582 5587 5577 5615 5607 5596 5587 5574 5567 5561 5553 5552 5553 5555 5558 5564 5569 5575 5578 5581 5586 5590 5593 5596 5600 5607 5611 5613 5616 5620 5623 5626 5628 5630 5633 5635 5638 5640 5642 5644 5643 5645 5648 5649
5605 5608 5602 5591 5591 5598 5577 5571 5613 5605 5591 5591 5589 5579 5573 5571 5569 5565 5565 5565 5567 5570 5575 5578 5581 5584 5587 5589 5593 5597 5604 5606 5608 5611 5615 5618 5619 5621 5624 5625 5626 5627 5629 5631 5632 5633 5635 5638 5640
5605 5615 5618 5619 5606 5611 5577 5578 5605 5613 5601 5590 5586 5584 5581 5580 5579 5577 5577 5577 5578 5578 5578 5580 5583 5586 5588 5588 5591 5597 5601 5602 5604 5608 5611 5613 5616 5617 5619 5621 5620 5621 5621 5621 5621 5624 5625 5626 5629
5589 5589 5593 5587 5597 5597 5593 5595 5622 5611 5606 5599 5591 5587 5585 5585 5583 5584 5585 5585 5584 5583 5583 5583 5584 5585 5587 5591 5594 5595 5596 5595 5600 5605 5606 5605 5607 5611 5615 5614 5615 5615 5614 5614 5614 5614 5617 5618 5620
5585 5581 5569 5567 5548 5562 5601 5610 5616 5612 5610 5607 5601 5594 5591 5589 5588 5587 5587 5585 5585 5586 5585 5584 5583 5583 5585 5588 5589 5591 5592 5594 5594 5596 5597 5600 5602 5605 5607 5608 5609 5608 5606 5608 5609 5608 5608 5611 5613
5574 5567 5570 5563 5571 5585 5613 5599 5614 5614 5608 5605 5603 5599 5597 5593 5590 5588 5587 5586 5586 5585 5584 5584 5584 5584 5585 5585 5586 5587 5587 5587 5589 5591 5593 5596 5599 5600 5602 5604 5606 5603 5602 5603 5603 5602 5601 5603 5604
5566 5564 5554 5545 5553 5564 5573 5614 5616 5608 5600 5594 5598 5599 5598 5597 5596 5594 5594 5592 5588 5584 5587 5588 5587 5586 5585 5583 5582 5582 5582 5585 5587 5587 5589 5591 5592 5595 5596 5597 5600 5600 5598 5597 5597 5596 5596 5597 5599
5558 5563 5560 5560 5553 5548 5539 5580 5602 5598 5593 5589 5591 5592 5594 5594 5595 5596 5595 5595 5594 5591 5590 5590 5589 5586 5584 5582 5580 5580 5579 5581 5585 5586 5585 5587 5589 5586 5588 5589 5589 5593 5593 5593 5594 5594 5594 5593 5592